Location: Karcze
(52.0945°N, 22.4786°E)
Time: 11:57:36
(UTC+00:00)

EP 1 - Pass Details

Date: 14 July 2020
Orbit: 314 x 1668 km, 63.3° (Epoch: 25 August)

Event Time Altitude Azimuth Distance (km) Brightness Sun altitude
Exits shadow 00:56:57 16° 229° (SW) 1,013 6.1 -10.1°
Maximum altitude 00:59:02 79° 317° (NW) 336 4.2 -9.9°
Drops below altitude 10° 01:01:37 10° 44° (NE) 1,226 8.7 -9.7°
Sets 01:03:32 0° 46° (NE) 2,080 10.3 -9.6°
